Date_UTC,IAGA,MLT,MLAT,IGRF_DECL,SZA,N,E,Z
2015-08-15 08:00:00,T22,22.01,60.09,19.72,108.07,5.1,-2.1,6.7
2015-08-15 08:01:00,T22,22.03,60.09,19.72,108.10,4.9,-1.9,7.4
2015-08-15 08:02:00,T22,22.05,60.09,19.72,108.14,3.8,-1.6,7.1
2015-08-15 08:03:00,T22,22.06,60.09,19.72,108.17,3.6,-0.8,6.9
2015-08-15 08:04:00,T22,22.08,60.09,19.72,108.20,3.8,-0.2,6.9
2015-08-15 08:05:00,T22,22.10,60.09,19.72,108.23,3.9,-0.1,7.4
2015-08-15 08:06:00,T22,22.11,60.09,19.72,108.26,4.8,-0.5,7.2
2015-08-15 08:07:00,T22,22.13,60.09,19.72,108.30,5.0,-0.4,7.5
2015-08-15 08:08:00,T22,22.15,60.09,19.72,108.33,5.2,-1.0,7.3
2015-08-15 08:09:00,T22,22.16,60.09,19.72,108.36,5.8,-1.3,7.3
2015-08-15 08:10:00,T22,22.18,60.09,19.72,108.38,5.7,-1.9,7.2
2015-08-15 08:11:00,T22,22.20,60.09,19.72,108.41,5.3,-2.3,6.7
2015-08-15 08:12:00,T22,22.21,60.09,19.72,108.44,5.4,-2.6,7.1
2015-08-15 08:13:00,T22,22.23,60.09,19.72,108.47,5.5,-3.2,6.7
2015-08-15 08:14:00,T22,22.25,60.09,19.72,108.50,5.6,-4.4,6.8
2015-08-15 08:15:00,T22,22.26,60.09,19.72,108.52,5.4,-4.8,6.7
2015-08-15 08:16:00,T22,22.28,60.09,19.72,108.55,5.4,-4.9,6.9
2015-08-15 08:17:00,T22,22.30,60.09,19.72,108.57,6.3,-5.1,6.5
2015-08-15 08:18:00,T22,22.31,60.09,19.72,108.60,6.7,-4.9,6.8
2015-08-15 08:19:00,T22,22.33,60.09,19.72,108.62,6.8,-4.9,6.9
2015-08-15 08:20:00,T22,22.35,60.09,19.72,108.64,5.4,-5.1,7.0
2015-08-15 08:21:00,T22,22.36,60.09,19.72,108.67,3.6,-6.2,6.6
2015-08-15 08:22:00,T22,22.38,60.09,19.72,108.69,3.0,-6.8,6.0
2015-08-15 08:23:00,T22,22.40,60.09,19.72,108.71,4.1,-6.7,6.2
2015-08-15 08:24:00,T22,22.41,60.09,19.72,108.73,5.8,-7.3,6.1
2015-08-15 08:25:00,T22,22.43,60.09,19.72,108.75,6.8,-6.8,6.4
2015-08-15 08:26:00,T22,22.45,60.09,19.72,108.77,7.1,-7.1,6.0
2015-08-15 08:27:00,T22,22.46,60.09,19.72,108.79,7.3,-6.2,6.4
2015-08-15 08:28:00,T22,22.48,60.09,19.72,108.81,8.7,-5.8,6.8
2015-08-15 08:29:00,T22,22.50,60.09,19.72,108.82,5.6,0.4,7.5
2015-08-15 08:30:00,T22,22.51,60.09,19.72,108.84,26.2,-3.5,8.4
2015-08-15 08:31:00,T22,22.53,60.09,19.72,108.86,57.2,-22.7,6.5
2015-08-15 08:32:00,T22,22.55,60.09,19.72,108.87,58.3,-30.6,2.6
2015-08-15 08:33:00,T22,22.56,60.09,19.72,108.89,57.3,-19.3,5.4
2015-08-15 08:34:00,T22,22.58,60.09,19.72,108.90,51.4,-24.1,4.4
2015-08-15 08:35:00,T22,22.60,60.09,19.72,108.92,41.1,-24.0,1.9
2015-08-15 08:36:00,T22,22.61,60.09,19.72,108.93,45.7,-15.8,2.6
2015-08-15 08:37:00,T22,22.63,60.09,19.72,108.94,44.2,-15.9,2.6
2015-08-15 08:38:00,T22,22.65,60.09,19.72,108.96,39.5,-15.2,2.3
2015-08-15 08:39:00,T22,22.67,60.09,19.72,108.97,40.7,-16.6,0.5
2015-08-15 08:40:00,T22,22.68,60.09,19.72,108.98,44.9,-14.5,0.6
2015-08-15 08:41:00,T22,22.70,60.09,19.72,108.99,41.4,-17.3,-0.1
2015-08-15 08:42:00,T22,22.72,60.09,19.72,109.00,42.3,-12.9,-0.0
2015-08-15 08:43:00,T22,22.73,60.09,19.72,109.01,42.3,-12.8,0.0
2015-08-15 08:44:00,T22,22.75,60.09,19.72,109.02,42.2,-8.7,-0.4
2015-08-15 08:45:00,T22,22.77,60.09,19.72,109.03,39.6,-11.4,-1.9
2015-08-15 08:46:00,T22,22.78,60.09,19.72,109.03,36.0,-9.4,-2.9
2015-08-15 08:47:00,T22,22.80,60.09,19.72,109.04,30.3,-8.7,-4.9
2015-08-15 08:48:00,T22,22.82,60.09,19.72,109.05,27.3,-4.3,-5.8
2015-08-15 08:49:00,T22,22.83,60.09,19.72,109.05,25.7,-2.7,-6.4
2015-08-15 08:50:00,T22,22.85,60.09,19.72,109.06,21.1,-0.9,-8.0
2015-08-15 08:51:00,T22,22.87,60.09,19.72,109.06,17.9,0.5,-9.2
2015-08-15 08:52:00,T22,22.88,60.09,19.72,109.06,16.6,3.3,-10.6
2015-08-15 08:53:00,T22,22.90,60.09,19.72,109.07,14.5,3.7,-12.2
2015-08-15 08:54:00,T22,22.92,60.09,19.72,109.07,13.1,8.1,-12.9
2015-08-15 08:55:00,T22,22.93,60.09,19.72,109.07,15.7,9.1,-13.5
2015-08-15 08:56:00,T22,22.95,60.09,19.72,109.07,13.4,13.7,-14.3
2015-08-15 08:57:00,T22,22.97,60.09,19.72,109.07,12.0,15.0,-15.5
2015-08-15 08:58:00,T22,22.98,60.09,19.72,109.07,14.3,21.7,-15.1
2015-08-15 08:59:00,T22,23.00,60.09,19.72,109.07,14.3,23.0,-15.8
2015-08-15 09:00:00,T22,23.02,60.09,19.72,109.07,14.2,23.7,-16.6
2015-08-15 09:01:00,T22,23.03,60.09,19.72,109.07,14.0,26.3,-17.3
2015-08-15 09:02:00,T22,23.05,60.09,19.72,109.07,12.1,26.7,-18.0
2015-08-15 09:03:00,T22,23.07,60.09,19.72,109.06,7.2,25.2,-19.7
2015-08-15 09:04:00,T22,23.08,60.09,19.72,109.06,7.4,26.3,-21.0
2015-08-15 09:05:00,T22,23.10,60.09,19.72,109.06,5.4,21.3,-21.8
2015-08-15 09:06:00,T22,23.12,60.09,19.72,109.05,3.4,21.6,-23.9
2015-08-15 09:07:00,T22,23.13,60.09,19.72,109.05,-0.9,23.2,-24.3
2015-08-15 09:08:00,T22,23.15,60.09,19.72,109.04,-1.9,21.0,-25.3
2015-08-15 09:09:00,T22,23.17,60.09,19.72,109.03,1.6,22.6,-24.0
2015-08-15 09:10:00,T22,23.18,60.09,19.72,109.03,0.2,21.4,-24.4
2015-08-15 09:11:00,T22,23.20,60.09,19.72,109.02,1.1,16.5,-25.7
2015-08-15 09:12:00,T22,23.22,60.09,19.72,109.01,2.4,12.2,-27.6
2015-08-15 09:13:00,T22,23.23,60.09,19.72,109.00,8.1,7.5,-28.5
2015-08-15 09:14:00,T22,23.25,60.09,19.72,108.99,12.5,7.0,-29.5
2015-08-15 09:15:00,T22,23.27,60.09,19.72,108.98,12.0,-0.9,-32.2
2015-08-15 09:16:00,T22,23.29,60.09,19.72,108.97,16.6,-1.9,-33.7
2015-08-15 09:17:00,T22,23.30,60.09,19.72,108.96,17.5,-6.4,-35.9
2015-08-15 09:18:00,T22,23.32,60.09,19.72,108.95,17.4,-8.1,-38.5
2015-08-15 09:19:00,T22,23.34,60.09,19.72,108.93,17.3,-6.9,-41.0
2015-08-15 09:20:00,T22,23.35,60.09,19.72,108.92,17.6,-12.8,-45.0
2015-08-15 09:21:00,T22,23.37,60.09,19.72,108.91,17.1,-18.9,-49.2
2015-08-15 09:22:00,T22,23.39,60.09,19.72,108.89,13.0,-25.6,-55.0
2015-08-15 09:23:00,T22,23.40,60.09,19.72,108.88,8.6,-25.3,-60.2
2015-08-15 09:24:00,T22,23.42,60.09,19.72,108.86,1.7,-25.9,-65.0
2015-08-15 09:25:00,T22,23.44,60.09,19.72,108.84,-13.7,-26.1,-72.6
2015-08-15 09:26:00,T22,23.45,60.09,19.72,108.83,-11.9,-25.6,-78.0
2015-08-15 09:27:00,T22,23.47,60.09,19.72,108.81,-14.0,-23.2,-82.5
2015-08-15 09:28:00,T22,23.49,60.09,19.72,108.79,-24.0,-22.8,-88.0
2015-08-15 09:29:00,T22,23.50,60.09,19.72,108.77,-32.0,-27.5,-95.0
2015-08-15 09:30:00,T22,23.52,60.09,19.72,108.75,-36.7,-17.6,-98.5
2015-08-15 09:31:00,T22,23.54,60.09,19.72,108.73,-34.5,-11.4,-98.8
2015-08-15 09:32:00,T22,23.55,60.09,19.72,108.71,-34.5,-8.5,-98.7
2015-08-15 09:33:00,T22,23.57,60.09,19.72,108.69,-37.3,-3.7,-100.3
2015-08-15 09:34:00,T22,23.59,60.09,19.72,108.67,-36.3,-2.3,-100.7
2015-08-15 09:35:00,T22,23.60,60.09,19.72,108.65,-46.8,0.1,-105.5
2015-08-15 09:36:00,T22,23.62,60.09,19.72,108.62,-54.5,-0.2,-111.0
2015-08-15 09:37:00,T22,23.64,60.09,19.72,108.60,-59.2,3.1,-115.2
2015-08-15 09:38:00,T22,23.65,60.09,19.72,108.57,-58.5,7.7,-116.1
2015-08-15 09:39:00,T22,23.67,60.09,19.72,108.55,-53.3,16.4,-113.8
2015-08-15 09:40:00,T22,23.69,60.09,19.72,108.52,-49.8,23.2,-111.4
2015-08-15 09:41:00,T22,23.70,60.09,19.72,108.50,-47.8,28.6,-109.4
2015-08-15 09:42:00,T22,23.72,60.09,19.72,108.47,-42.9,33.9,-107.1
2015-08-15 09:43:00,T22,23.74,60.09,19.72,108.44,-39.9,37.0,-104.8
2015-08-15 09:44:00,T22,23.75,60.09,19.72,108.42,-31.8,40.4,-100.9
2015-08-15 09:45:00,T22,23.77,60.09,19.72,108.39,-25.2,44.6,-96.3
2015-08-15 09:46:00,T22,23.79,60.09,19.72,108.36,-19.0,45.4,-93.4
2015-08-15 09:47:00,T22,23.80,60.09,19.72,108.33,-19.9,45.0,-92.8
2015-08-15 09:48:00,T22,23.82,60.09,19.72,108.30,-21.1,43.8,-94.2
2015-08-15 09:49:00,T22,23.84,60.09,19.72,108.27,-18.5,46.5,-93.5
2015-08-15 09:50:00,T22,23.86,60.09,19.72,108.24,-12.7,46.5,-92.2
2015-08-15 09:51:00,T22,23.87,60.09,19.72,108.21,-8.5,45.1,-90.1
2015-08-15 09:52:00,T22,23.89,60.09,19.72,108.17,-5.2,42.2,-89.4
2015-08-15 09:53:00,T22,23.91,60.09,19.72,108.14,-5.1,40.0,-88.7
2015-08-15 09:54:00,T22,23.92,60.09,19.72,108.11,-3.7,38.4,-87.6
2015-08-15 09:55:00,T22,23.94,60.09,19.72,108.07,1.7,37.3,-85.7
2015-08-15 09:56:00,T22,23.96,60.09,19.72,108.04,4.8,36.9,-82.5
2015-08-15 09:57:00,T22,23.97,60.09,19.72,108.00,4.2,35.6,-80.1
2015-08-15 09:58:00,T22,23.99,60.09,19.72,107.96,4.0,37.8,-77.6
2015-08-15 09:59:00,T22,0.01,60.09,19.72,107.93,2.4,35.8,-77.3
2015-08-15 10:00:00,T22,0.02,60.09,19.72,107.89,1.3,33.6,-77.7
2015-08-15 10:01:00,T22,0.04,60.09,19.72,107.85,-0.3,31.2,-78.1
2015-08-15 10:02:00,T22,0.06,60.09,19.72,107.81,3.4,29.8,-77.0
2015-08-15 10:03:00,T22,0.07,60.09,19.72,107.78,4.6,28.4,-75.6
2015-08-15 10:04:00,T22,0.09,60.09,19.72,107.74,3.1,29.3,-74.6
2015-08-15 10:05:00,T22,0.11,60.09,19.72,107.70,7.2,29.8,-72.1
2015-08-15 10:06:00,T22,0.12,60.09,19.72,107.66,6.0,28.6,-71.2
2015-08-15 10:07:00,T22,0.14,60.09,19.72,107.61,5.8,26.2,-71.0
2015-08-15 10:08:00,T22,0.16,60.09,19.72,107.57,4.2,27.9,-70.2
2015-08-15 10:09:00,T22,0.17,60.09,19.72,107.53,-1.9,24.3,-73.2
2015-08-15 10:10:00,T22,0.19,60.09,19.72,107.49,-9.2,27.2,-76.3
2015-08-15 10:11:00,T22,0.21,60.09,19.72,107.44,-15.8,27.9,-79.6
2015-08-15 10:12:00,T22,0.22,60.09,19.72,107.40,-23.5,27.8,-85.4
2015-08-15 10:13:00,T22,0.24,60.09,19.72,107.35,-33.1,31.1,-91.9
2015-08-15 10:14:00,T22,0.26,60.09,19.72,107.31,-38.6,34.8,-98.1
2015-08-15 10:15:00,T22,0.27,60.09,19.72,107.26,-44.3,37.2,-104.8
2015-08-15 10:16:00,T22,0.29,60.09,19.72,107.22,-48.8,40.3,-110.3
2015-08-15 10:17:00,T22,0.31,60.09,19.72,107.17,-53.2,43.9,-116.4
2015-08-15 10:18:00,T22,0.32,60.09,19.72,107.12,-59.5,50.5,-122.1
2015-08-15 10:19:00,T22,0.34,60.09,19.72,107.08,-61.5,55.9,-126.3
2015-08-15 10:20:00,T22,0.36,60.09,19.72,107.03,-62.7,59.9,-130.0
2015-08-15 10:21:00,T22,0.37,60.09,19.72,106.98,-69.4,64.1,-135.8
2015-08-15 10:22:00,T22,0.39,60.09,19.72,106.93,-76.3,68.0,-141.5
2015-08-15 10:23:00,T22,0.41,60.09,19.72,106.88,-79.4,75.4,-144.9
2015-08-15 10:24:00,T22,0.42,60.09,19.72,106.83,-71.9,79.4,-145.3
2015-08-15 10:25:00,T22,0.44,60.09,19.72,106.78,-71.1,86.2,-147.4
2015-08-15 10:26:00,T22,0.46,60.09,19.72,106.72,-66.1,88.6,-149.6
2015-08-15 10:27:00,T22,0.47,60.09,19.72,106.67,-75.5,90.4,-154.3
2015-08-15 10:28:00,T22,0.49,60.09,19.72,106.62,-74.2,93.1,-157.9
2015-08-15 10:29:00,T22,0.51,60.09,19.72,106.56,-76.3,93.3,-163.1
2015-08-15 10:30:00,T22,0.52,60.09,19.72,106.51,-88.9,96.9,-170.4
2015-08-15 10:31:00,T22,0.54,60.09,19.72,106.46,-77.0,98.7,-171.8
2015-08-15 10:32:00,T22,0.55,60.09,19.72,106.40,-67.6,97.1,-171.5
2015-08-15 10:33:00,T22,0.57,60.09,19.72,106.35,-63.9,95.3,-173.0
2015-08-15 10:34:00,T22,0.59,60.09,19.72,106.29,-55.2,92.0,-174.4
2015-08-15 10:35:00,T22,0.60,60.09,19.72,106.23,-57.0,88.9,-176.8
2015-08-15 10:36:00,T22,0.62,60.09,19.72,106.18,-70.9,91.0,-184.5
2015-08-15 10:37:00,T22,0.64,60.09,19.72,106.12,-68.5,84.8,-189.9
2015-08-15 10:38:00,T22,0.65,60.09,19.72,106.06,-79.6,91.3,-195.5
2015-08-15 10:39:00,T22,0.67,60.09,19.72,106.00,-115.5,97.8,-210.8
2015-08-15 10:40:00,T22,0.69,60.09,19.72,105.94,-126.6,102.7,-226.6
2015-08-15 10:41:00,T22,0.70,60.09,19.72,105.88,-151.4,110.1,-241.5
2015-08-15 10:42:00,T22,0.72,60.09,19.72,105.82,-167.6,107.6,-258.9
2015-08-15 10:43:00,T22,0.74,60.09,19.72,105.76,-182.4,111.0,-274.0
2015-08-15 10:44:00,T22,0.75,60.09,19.72,105.70,-192.9,117.7,-286.4
2015-08-15 10:45:00,T22,0.77,60.09,19.72,105.64,-196.3,115.3,-297.5
2015-08-15 10:46:00,T22,0.79,60.09,19.72,105.57,-201.6,120.0,-304.4
2015-08-15 10:47:00,T22,0.80,60.09,19.72,105.51,-232.6,122.5,-317.6
2015-08-15 10:48:00,T22,0.82,60.09,19.72,105.45,-259.3,133.3,-329.4
2015-08-15 10:49:00,T22,0.83,60.09,19.72,105.38,-266.2,145.8,-331.4
2015-08-15 10:50:00,T22,0.85,60.09,19.72,105.32,-296.3,158.8,-340.6
2015-08-15 10:51:00,T22,0.87,60.09,19.72,105.25,-325.8,176.9,-345.9
2015-08-15 10:52:00,T22,0.88,60.09,19.72,105.19,-351.1,193.9,-355.2
2015-08-15 10:53:00,T22,0.90,60.09,19.72,105.12,-382.2,197.2,-373.9
2015-08-15 10:54:00,T22,0.92,60.09,19.72,105.06,-426.4,219.2,-380.9
2015-08-15 10:55:00,T22,0.93,60.09,19.72,104.99,-458.6,231.0,-386.3
2015-08-15 10:56:00,T22,0.95,60.09,19.72,104.92,-487.3,254.1,-381.6
2015-08-15 10:57:00,T22,0.97,60.09,19.72,104.85,-501.0,275.2,-369.6
2015-08-15 10:58:00,T22,0.98,60.09,19.72,104.78,-503.7,281.5,-349.4
2015-08-15 10:59:00,T22,1.00,60.09,19.72,104.71,-475.0,279.6,-308.5
2015-08-15 11:00:00,T22,1.01,60.09,19.72,104.65,-446.9,250.1,-257.8
2015-08-15 11:01:00,T22,1.03,60.09,19.72,104.58,-431.2,207.8,-228.3
2015-08-15 11:02:00,T22,1.05,60.09,19.72,104.50,-416.3,215.0,-224.5
2015-08-15 11:03:00,T22,1.06,60.09,19.72,104.43,-398.5,246.5,-217.2
2015-08-15 11:04:00,T22,1.08,60.09,19.72,104.36,-407.3,253.2,-183.4
2015-08-15 11:05:00,T22,1.10,60.09,19.72,104.29,-415.8,223.6,-155.8
2015-08-15 11:06:00,T22,1.11,60.09,19.72,104.22,-386.1,202.1,-134.0
2015-08-15 11:07:00,T22,1.13,60.09,19.72,104.14,-404.2,218.1,-110.0
2015-08-15 11:08:00,T22,1.14,60.09,19.72,104.07,-451.4,204.9,-76.7
2015-08-15 11:09:00,T22,1.16,60.09,19.72,104.00,-455.9,181.0,-61.7
2015-08-15 11:10:00,T22,1.18,60.09,19.72,103.92,-463.1,166.2,-86.9
2015-08-15 11:11:00,T22,1.19,60.09,19.72,103.85,-486.7,139.8,-104.4
2015-08-15 11:12:00,T22,1.21,60.09,19.72,103.77,-509.6,100.7,-106.4
2015-08-15 11:13:00,T22,1.22,60.09,19.72,103.70,-544.7,67.4,-124.6
2015-08-15 11:14:00,T22,1.24,60.09,19.72,103.62,-546.4,45.6,-179.6
2015-08-15 11:15:00,T22,1.26,60.09,19.72,103.54,-469.8,68.8,-222.5
2015-08-15 11:16:00,T22,1.27,60.09,19.72,103.47,-423.1,189.1,-243.7
2015-08-15 11:17:00,T22,1.29,60.09,19.72,103.39,-437.5,286.6,-241.2
2015-08-15 11:18:00,T22,1.31,60.09,19.72,103.31,-567.0,333.3,-198.7
2015-08-15 11:19:00,T22,1.32,60.09,19.72,103.23,-687.0,172.8,-104.6
2015-08-15 11:20:00,T22,1.34,60.09,19.72,103.15,-777.0,-145.0,-179.6
2015-08-15 11:21:00,T22,1.35,60.09,19.72,103.07,-794.7,-175.5,-417.8
2015-08-15 11:22:00,T22,1.37,60.09,19.72,102.99,-1004.9,82.9,-509.3
2015-08-15 11:23:00,T22,1.39,60.09,19.72,102.91,-1072.3,50.3,-534.9
2015-08-15 11:24:00,T22,1.40,60.09,19.72,102.83,-1264.7,299.4,-523.4
2015-08-15 11:25:00,T22,1.42,60.09,19.72,102.75,-1541.1,210.0,-583.5
2015-08-15 11:26:00,T22,1.43,60.09,19.72,102.67,-1506.2,182.3,-610.2
2015-08-15 11:27:00,T22,1.45,60.09,19.72,102.59,-1553.9,193.4,-606.5
2015-08-15 11:28:00,T22,1.47,60.09,19.72,102.50,-1552.9,156.2,-615.5
2015-08-15 11:29:00,T22,1.48,60.09,19.72,102.42,-1387.1,112.6,-598.9
2015-08-15 11:30:00,T22,1.50,60.09,19.72,102.34,-1240.6,123.0,-571.3
2015-08-15 11:31:00,T22,1.51,60.09,19.72,102.25,-1085.4,56.8,-577.4
2015-08-15 11:32:00,T22,1.53,60.09,19.72,102.17,-898.8,131.5,-572.1
2015-08-15 11:33:00,T22,1.54,60.09,19.72,102.08,-819.7,212.7,-553.1
2015-08-15 11:34:00,T22,1.56,60.09,19.72,102.00,-793.4,239.1,-548.8
2015-08-15 11:35:00,T22,1.58,60.09,19.72,101.91,-861.4,170.5,-552.0
2015-08-15 11:36:00,T22,1.59,60.09,19.72,101.83,-849.3,107.0,-573.1
2015-08-15 11:37:00,T22,1.61,60.09,19.72,101.74,-834.3,64.9,-599.1
2015-08-15 11:38:00,T22,1.62,60.09,19.72,101.65,-886.4,20.0,-665.8
2015-08-15 11:39:00,T22,1.64,60.09,19.72,101.57,-893.2,-2.0,-769.9
2015-08-15 11:40:00,T22,1.65,60.09,19.72,101.48,-916.5,-17.5,-837.3
2015-08-15 11:41:00,T22,1.67,60.09,19.72,101.39,-972.2,50.6,-873.0
2015-08-15 11:42:00,T22,1.69,60.09,19.72,101.30,-952.6,61.7,-898.2
2015-08-15 11:43:00,T22,1.70,60.09,19.72,101.21,-1036.0,122.9,-893.3
2015-08-15 11:44:00,T22,1.72,60.09,19.72,101.12,-1067.9,114.4,-839.6
2015-08-15 11:45:00,T22,1.73,60.09,19.72,101.03,-1069.8,89.1,-776.6
2015-08-15 11:46:00,T22,1.75,60.09,19.72,100.94,-976.0,19.9,-703.1
2015-08-15 11:47:00,T22,1.76,60.09,19.72,100.85,-935.2,-15.3,-670.5
2015-08-15 11:48:00,T22,1.78,60.09,19.72,100.76,-911.7,-63.1,-591.4
2015-08-15 11:49:00,T22,1.80,60.09,19.72,100.67,-816.3,-142.5,-529.9
2015-08-15 11:50:00,T22,1.81,60.09,19.72,100.58,-754.1,-162.1,-498.9
2015-08-15 11:51:00,T22,1.83,60.09,19.72,100.48,-713.6,-150.0,-490.8
2015-08-15 11:52:00,T22,1.84,60.09,19.72,100.39,-694.0,-116.4,-475.9
2015-08-15 11:53:00,T22,1.86,60.09,19.72,100.30,-700.6,-46.6,-453.3
2015-08-15 11:54:00,T22,1.87,60.09,19.72,100.20,-687.5,-1.8,-465.3
2015-08-15 11:55:00,T22,1.89,60.09,19.72,100.11,-650.8,17.4,-454.9
2015-08-15 11:56:00,T22,1.90,60.09,19.72,100.02,-618.0,115.8,-392.2
2015-08-15 11:57:00,T22,1.92,60.09,19.72,99.92,-545.4,183.0,-346.7
2015-08-15 11:58:00,T22,1.93,60.09,19.72,99.83,-493.0,228.0,-273.0
2015-08-15 11:59:00,T22,1.95,60.09,19.72,99.73,-439.6,262.8,-244.6
2015-08-15 12:00:00,T22,1.97,60.09,19.72,99.63,-471.2,262.2,-280.9
2015-08-15 12:01:00,T22,1.98,60.09,19.72,99.54,-514.7,293.8,-329.9
2015-08-15 12:02:00,T22,2.00,60.09,19.72,99.44,-606.1,332.8,-377.4
2015-08-15 12:03:00,T22,2.01,60.09,19.72,99.34,-704.3,415.4,-417.8
2015-08-15 12:04:00,T22,2.03,60.09,19.72,99.25,-842.9,503.5,-435.8
2015-08-15 12:05:00,T22,2.04,60.09,19.72,99.15,-917.4,595.5,-331.0
2015-08-15 12:06:00,T22,2.06,60.09,19.72,99.05,-971.8,564.8,-166.3
2015-08-15 12:07:00,T22,2.07,60.09,19.72,98.95,-865.5,273.3,-33.6
2015-08-15 12:08:00,T22,2.09,60.09,19.72,98.85,-739.7,43.9,-14.7
2015-08-15 12:09:00,T22,2.10,60.09,19.72,98.75,-692.9,-83.6,-28.3
2015-08-15 12:10:00,T22,2.12,60.09,19.72,98.65,-607.5,-131.4,-73.2
2015-08-15 12:11:00,T22,2.13,60.09,19.72,98.55,-557.6,-56.7,-128.9
2015-08-15 12:12:00,T22,2.15,60.09,19.72,98.45,-556.3,85.3,-193.5
2015-08-15 12:13:00,T22,2.16,60.09,19.72,98.35,-548.2,266.9,-209.2
2015-08-15 12:14:00,T22,2.18,60.09,19.72,98.25,-383.7,349.8,-220.6
2015-08-15 12:15:00,T22,2.19,60.09,19.72,98.15,-291.9,504.4,-196.2
2015-08-15 12:16:00,T22,2.21,60.09,19.72,98.05,-403.2,645.1,-185.8
2015-08-15 12:17:00,T22,2.22,60.09,19.72,97.95,-781.8,580.5,-107.5
2015-08-15 12:18:00,T22,2.24,60.09,19.72,97.84,-970.2,403.5,-50.3
2015-08-15 12:19:00,T22,2.26,60.09,19.72,97.74,-987.6,198.0,-44.9
2015-08-15 12:20:00,T22,2.27,60.09,19.72,97.64,-958.1,25.6,-101.3
2015-08-15 12:21:00,T22,2.29,60.09,19.72,97.53,-882.0,-37.6,-189.7
2015-08-15 12:22:00,T22,2.30,60.09,19.72,97.43,-808.0,-14.8,-210.6
2015-08-15 12:23:00,T22,2.32,60.09,19.72,97.32,-798.9,-111.4,-191.8
2015-08-15 12:24:00,T22,2.33,60.09,19.72,97.22,-899.4,-1.6,-340.9
2015-08-15 12:25:00,T22,2.35,60.09,19.72,97.12,-971.4,366.2,-443.7
2015-08-15 12:26:00,T22,2.36,60.09,19.72,97.01,-1064.5,546.9,-369.6
2015-08-15 12:27:00,T22,2.38,60.09,19.72,96.90,-1113.0,463.9,-320.3
2015-08-15 12:28:00,T22,2.39,60.09,19.72,96.80,-1114.1,124.9,-286.0
2015-08-15 12:29:00,T22,2.41,60.09,19.72,96.69,-877.6,396.6,-338.5
2015-08-15 12:30:00,T22,2.42,60.09,19.72,96.59,-992.0,356.6,-249.6
2015-08-15 12:31:00,T22,2.44,60.09,19.72,96.48,-1037.9,161.6,-226.9
2015-08-15 12:32:00,T22,2.45,60.09,19.72,96.37,-965.4,22.7,-287.5
2015-08-15 12:33:00,T22,2.47,60.09,19.72,96.26,-902.3,42.0,-321.3
2015-08-15 12:34:00,T22,2.48,60.09,19.72,96.16,-841.3,251.7,-302.8
2015-08-15 12:35:00,T22,2.49,60.09,19.72,96.05,-897.0,343.3,-238.0
2015-08-15 12:36:00,T22,2.51,60.09,19.72,95.94,-871.0,305.4,-267.1
2015-08-15 12:37:00,T22,2.52,60.09,19.72,95.83,-901.6,367.3,-270.0
2015-08-15 12:38:00,T22,2.54,60.09,19.72,95.72,-909.1,440.3,-286.7
2015-08-15 12:39:00,T22,2.55,60.09,19.72,95.61,-954.4,685.5,-311.1
2015-08-15 12:40:00,T22,2.57,60.09,19.72,95.50,-993.3,812.0,-182.7
2015-08-15 12:41:00,T22,2.58,60.09,19.72,95.39,-1063.5,768.5,57.7
2015-08-15 12:42:00,T22,2.60,60.09,19.72,95.28,-1136.9,473.1,180.2
2015-08-15 12:43:00,T22,2.61,60.09,19.72,95.17,-1077.6,250.1,183.9
2015-08-15 12:44:00,T22,2.63,60.09,19.72,95.06,-1037.6,145.2,133.5
2015-08-15 12:45:00,T22,2.64,60.09,19.72,94.95,-953.6,65.2,95.4
2015-08-15 12:46:00,T22,2.66,60.09,19.72,94.84,-818.1,-28.9,72.4
2015-08-15 12:47:00,T22,2.67,60.09,19.72,94.72,-741.9,-27.8,39.0
2015-08-15 12:48:00,T22,2.69,60.09,19.72,94.61,-705.0,13.4,21.4
2015-08-15 12:49:00,T22,2.70,60.09,19.72,94.50,-692.7,83.2,16.2
2015-08-15 12:50:00,T22,2.72,60.09,19.72,94.39,-674.9,121.9,39.6
2015-08-15 12:51:00,T22,2.73,60.09,19.72,94.27,-640.0,73.2,36.0
2015-08-15 12:52:00,T22,2.75,60.09,19.72,94.16,-584.3,62.9,27.7
2015-08-15 12:53:00,T22,2.76,60.09,19.72,94.05,-529.6,44.1,9.6
2015-08-15 12:54:00,T22,2.78,60.09,19.72,93.93,-522.8,35.9,-38.6
2015-08-15 12:55:00,T22,2.79,60.09,19.72,93.82,-499.0,43.7,-96.2
2015-08-15 12:56:00,T22,2.80,60.09,19.72,93.70,-476.3,96.7,-132.2
2015-08-15 12:57:00,T22,2.82,60.09,19.72,93.59,-457.9,111.1,-139.6
2015-08-15 12:58:00,T22,2.83,60.09,19.72,93.47,-416.2,104.4,-161.6
2015-08-15 12:59:00,T22,2.85,60.09,19.72,93.36,-433.8,127.9,-155.8
2015-08-15 13:00:00,T22,2.86,60.09,19.72,93.24,-392.3,89.9,-182.5
